Helicity
104 44 11 1 17 33 -9 46 -2 63 31 33 3 6 23 131 33 89 106 149 213 212 99 68 53 50 42 39 45 38 71 57 49 50 49 44 47 46 49 36 33 41 37 27 26 27 23 21 12
58 48 21 -8 9 -2 50 79 71 35 53 53 102 51 64 139 110 50 105 110 173 130 99 65 58 58 45 60 67 54 83 74 67 76 79 71 64 55 51 45 31 39 45 34 37 32 34 24 15
78 15 5 22 24 -9 -7 72 28 74 121 93 93 14 89 84 86 77 113 117 162 178 133 91 74 75 69 76 84 95 93 100 90 93 88 85 83 75 71 57 51 40 42 39 35 40 39 33 25
2 25 27 18 -5 8 27 51 -1 91 73 55 67 120 99 141 52 68 90 157 179 146 117 122 105 92 86 87 84 108 100 101 92 98 94 91 93 86 84 80 70 60 49 52 35 47 50 42 34
12 15 14 50 15 -2 78 53 43 65 70 42 24 146 100 60 86 70 126 138 150 143 130 129 123 109 96 99 114 108 116 98 98 100 99 93 95 94 90 85 80 74 58 54 43 47 50 47 44
20 42 25 20 24 74 66 67 42 42 32 33 34 92 117 69 66 89 113 129 121 126 126 129 125 122 122 122 120 123 124 116 110 104 99 95 97 96 94 87 80 76 69 55 60 44 49 43 44
23 43 27 20 23 37 71 75 39 25 39 28 24 77 99 78 75 112 117 101 102 108 106 92 91 113 156 168 155 151 143 143 144 135 118 113 106 94 95 92 90 79 83 67 69 47 53 45 46
47 52 30 44 56 40 100 97 14 23 50 28 56 51 70 90 101 113 101 87 84 80 67 63 56 63 80 104 139 150 149 148 149 144 132 116 108 102 95 98 101 86 88 76 72 66 59 46 36
60 67 50 30 90 78 164 96 53 7 35 141 118 155 194 132 120 114 114 92 84 66 64 58 59 56 43 50 72 84 96 90 95 112 120 96 141 137 171 215 179 152 129 114 87 79 71 60 43
63 85 60 131 179 131 123 86 38 84 92 108 130 127 171 82 95 103 107 122 89 82 79 71 63 58 46 49 46 67 84 112 146 157 141 198 222 227 208 183 172 165 147 132 115 95 73 56 52
86 85 100 174 92 127 100 115 65 67 70 66 82 98 108 85 74 78 87 109 96 98 106 100 89 74 63 81 58 64 84 99 137 176 188 179 192 211 200 192 182 161 141 105 106 93 95 125 125
124 84 68 105 109 77 84 62 79 52 48 5 52 132 70 81 69 64 85 118 124 109 130 130 120 105 95 62 67 82 104 121 141 163 161 146 169 200 202 202 191 199 204 184 175 179 171 139 121
83 43 81 79 86 101 78 84 90 82 44 71 85 140 117 60 66 64 70 123 113 119 141 148 132 113 103 80 95 116 110 160 168 161 178 167 143 148 130 150 160 168 167 164 171 154 137 136 123
138 126 94 92 76 80 73 70 75 62 40 12 91 114 77 46 69 83 94 139 121 135 145 146 139 127 109 127 117 133 154 143 178 177 172 160 161 155 140 132 145 142 158 165 142 157 139 134 128
111 93 68 60 56 58 75 82 79 39 56 70 64 93 76 64 67 87 88 125 133 155 155 156 178 154 137 130 120 144 146 161 174 156 169 169 152 147 148 154 152 151 137 120 116 110 100 90 81
73 78 135 77 87 97 105 148 74 26 78 82 54 63 73 90 76 90 110 119 136 155 189 192 193 177 155 150 135 149 144 150 158 141 141 157 152 150 150 140 143 136 126 132 133 126 124 106 90
97 173 147 93 74 132 126 139 33 35 39 121 49 41 69 76 93 114 148 117 151 182 222 241 218 195 186 154 168 171 139 137 150 132 134 147 144 150 144 139 125 123 117 118 117 109 104 87 79
111 61 53 93 91 68 70 83 61 25 82 116 60 34 56 72 103 115 152 147 172 229 252 264 248 233 198 168 160 167 158 141 134 126 128 123 129 129 114 109 110 102 103 105 117 111 101 79 83
151 201 186 84 38 62 94 76 79 24 32 86 78 36 36 67 102 154 173 191 197 245 258 279 286 240 209 162 141 158 147 144 146 137 138 131 126 131 128 115 106 101 116 107 97 80 71 74 77
136 97 70 60 40 73 97 62 81 58 39 48 61 88 39 66 113 167 297 227 208 236 248 271 282 243 196 169 141 149 174 151 160 161 155 141 134 130 128 122 115 106 85 89 91 95 73 75 93
68 55 61 67 80 74 67 34 35 38 74 37 49 74 68 54 71 115 302 267 254 251 256 278 289 254 218 199 230 235 234 202 178 163 156 152 140 134 126 117 104 102 98 98 103 107 121 96 89
82 59 68 99 91 83 55 23 73 45 45 57 32 48 55 -12 28 46 218 313 210 191 230 245 273 263 242 250 228 199 175 179 173 173 173 165 149 138 128 126 123 125 122 123 116 117 114 103 96
62 131 138 135 91 99 87 102 58 -30 19 84 119 80 31 27 25 11 65 301 256 178 195 216 260 258 260 258 218 196 171 234 258 218 180 177 158 145 137 131 134 136 130 134 138 138 132 108 93
130 128 50 72 86 129 96 99 82 74 300 232 187 140 97 56 6 3 22 241 323 233 231 208 237 285 284 242 239 201 240 271 242 224 201 185 172 151 145 148 157 155 147 144 134 126 136 131 135
120 126 138 160 145 132 84 98 83 100 64 51 86 86 63 165 169 122 44 181 255 266 239 251 202 220 292 246 252 241 280 237 234 231 214 205 195 170 162 155 150 150 153 151 139 132 138 146 141
105 108 239 233 183 163 165 179 78 165 150 287 178 240 233 164 75 78 89 83 167 182 184 189 158 189 271 253 261 279 284 263 269 261 262 228 218 200 169 164 168 158 149 143 133 128 133 140 129
139 201 160 218 227 238 223 144 65 42 179 160 217 123 90 75 65 73 17 13 44 109 148 241 147 159 246 240 264 288 294 296 314 320 291 265 243 203 189 174 161 161 142 131 123 136 135 119 111
124 157 236 282 280 187 132 89 85 175 193 183 135 126 113 71 50 14 25 20 -3 46 129 217 149 154 255 264 280 281 286 321 334 331 318 262 246 210 174 155 166 158 142 131 120 126 125 101 97
158 144 203 271 264 268 243 155 47 154 60 55 67 40 72 117 126 125 18 -16 32 80 213 250 239 234 277 293 315 328 327 348 329 328 321 276 239 198 179 167 185 164 146 131 132 110 107 130 129
173 153 71 193 185 176 218 192 101 99 64 89 50 10 92 109 59 52 100 81 79 28 80 132 144 155 252 287 316 338 346 350 366 354 338 267 218 210 192 151 190 163 134 114 106 119 132 139 145
Wind_Speed
36 21 19 17 18 16 8 19 27 22 22 26 25 25 26 35 24 20 25 22 25 25 21 20 20 20 21 22 23 22 25 26 27 28 28 28 28 29 29 28 28 28 29 29 31 33 35 36 37
39 32 18 15 16 8 21 21 22 18 21 22 23 22 20 26 31 23 22 20 21 23 21 18 18 18 18 18 19 19 22 24 25 25 26 25 25 26 26 26 25 26 26 26 28 29 30 31 33
26 16 13 14 4 4 43 27 18 20 20 18 19 20 24 25 25 23 21 19 20 21 21 18 17 16 16 15 16 17 20 21 21 22 22 22 22 22 23 23 23 24 24 24 25 26 27 27 28
36 17 15 10 6 26 33 34 20 16 14 14 17 19 23 28 22 21 20 19 18 18 19 19 17 15 15 14 15 15 18 17 18 19 19 19 19 19 20 20 21 22 22 22 23 24 23 23 23
22 21 16 4 4 12 29 25 15 7 9 6 9 17 23 19 21 19 19 18 17 19 19 18 17 15 14 14 13 14 15 15 16 17 17 16 17 17 17 18 19 19 19 21 22 22 22 21 21
25 28 27 21 20 22 27 24 13 2 4 6 3 14 19 15 13 15 17 17 16 17 18 18 17 16 15 15 14 15 15 15 15 16 16 16 16 16 15 15 16 17 18 18 19 20 20 24 23
27 35 44 55 55 40 32 24 17 4 7 5 10 8 20 9 9 13 14 15 15 15 16 16 16 15 16 16 16 16 17 18 20 21 20 20 19 16 15 15 16 16 16 15 16 18 24 22 20
39 44 47 49 48 48 29 25 20 11 11 12 13 10 15 2 7 11 12 13 13 13 13 13 14 14 14 15 16 17 18 20 22 24 24 22 20 20 17 16 16 14 16 16 15 17 17 15 14
36 46 51 52 47 45 34 32 14 13 11 12 13 29 28 8 7 8 9 10 10 11 12 12 13 13 14 15 15 17 18 19 21 23 25 22 28 26 23 30 28 28 28 28 27 25 24 24 18
37 50 51 53 46 44 43 31 26 16 16 15 13 22 11 3 4 4 2 3 4 6 8 10 11 12 13 15 15 18 19 23 26 28 27 30 32 32 31 32 31 32 32 32 31 30 28 26 33
47 50 57 50 45 47 45 42 27 26 27 20 17 12 8 7 7 6 5 3 2 3 7 9 11 13 14 18 18 19 22 24 28 30 31 30 32 34 34 33 33 32 35 30 30 32 33 36 39
58 52 53 54 50 46 45 43 42 33 29 32 20 16 14 15 14 12 10 7 5 3 5 8 10 14 17 19 21 23 24 26 28 33 32 31 31 34 36 37 37 38 40 42 42 41 44 43 43
59 56 56 53 54 53 53 49 48 45 30 30 28 11 16 19 18 16 14 10 9 8 10 11 12 15 18 21 23 26 27 29 31 33 36 34 31 33 32 33 34 36 38 41 42 42 43 45 45
65 61 60 59 56 57 59 54 48 43 38 37 29 26 23 23 22 19 17 14 13 13 13 14 15 17 19 24 25 27 30 30 32 33 35 34 34 34 34 33 34 36 39 41 42 45 46 47 47
62 71 67 60 56 55 53 64 52 43 35 34 32 28 26 26 25 24 20 18 16 15 14 15 17 18 20 21 24 28 29 30 32 32 35 34 35 33 33 34 35 39 40 41 41 43 43 44 45
70 70 77 62 51 52 45 75 53 37 37 40 33 30 30 29 28 25 21 20 18 17 15 15 17 17 19 21 25 27 28 29 31 31 34 35 33 33 32 33 35 38 38 39 40 42 44 44 46
60 76 72 62 42 53 50 64 44 51 51 34 34 33 32 31 29 28 23 22 20 19 17 18 17 17 18 19 22 25 26 28 29 30 32 34 34 33 32 33 35 36 36 37 39 40 42 43 45
69 65 61 64 58 48 53 59 58 51 42 41 42 36 33 34 34 31 28 23 22 20 19 19 18 17 17 17 19 22 24 25 27 29 31 32 32 31 30 31 33 34 34 36 39 40 42 40 47
72 75 74 69 61 60 64 68 68 59 52 42 42 42 41 39 37 36 32 27 25 23 22 22 21 18 16 16 17 20 22 22 25 28 28 29 29 29 29 30 32 33 35 37 39 40 40 41 48
64 68 72 68 63 67 73 78 72 64 61 55 53 43 43 41 38 37 32 31 30 30 27 24 23 21 20 19 19 19 19 19 21 24 27 27 28 28 28 29 31 33 32 36 38 41 41 41 46
64 68 70 74 75 83 83 99 76 60 50 50 48 43 44 44 42 38 35 33 34 35 32 30 27 25 24 22 19 18 18 20 20 21 23 25 26 27 27 28 29 31 33 36 38 41 43 44 44
72 63 67 72 72 84 69 104 75 70 66 43 44 43 41 47 44 40 38 35 37 36 34 32 30 28 26 23 23 20 19 21 19 19 22 22 22 24 26 28 28 30 32 34 37 40 42 45 46
68 60 65 67 74 82 75 77 78 35 42 48 58 34 41 45 52 52 43 37 35 38 40 36 32 31 30 28 26 24 23 22 19 19 17 20 20 22 24 26 28 30 32 34 37 40 41 43 44
50 53 59 61 66 85 75 67 76 57 48 47 44 43 52 63 49 48 47 33 34 38 42 43 40 38 34 33 33 30 28 25 22 20 20 19 20 22 24 26 28 30 32 35 37 39 42 42 43
51 59 71 71 68 83 68 63 58 37 47 51 55 54 55 61 59 61 50 34 39 39 39 42 44 45 40 39 38 35 32 29 26 23 24 21 21 22 24 27 29 31 32 34 36 38 40 42 42
59 60 69 80 82 86 61 68 63 46 47 50 51 55 60 61 58 53 51 50 44 44 42 42 45 46 44 43 42 39 35 34 30 26 26 25 23 22 22 25 28 32 33 35 36 36 38 39 40
62 65 62 79 77 78 75 80 75 71 47 53 56 58 61 64 65 62 53 48 43 41 42 42 45 46 45 45 44 42 38 35 34 30 27 26 23 22 22 24 28 31 34 35 37 36 37 37 38
45 33 59 58 79 91 85 76 72 43 54 60 67 75 78 77 72 68 61 53 44 41 37 37 40 45 44 45 44 42 40 38 35 32 31 28 25 23 23 24 27 30 33 34 34 34 35 35 38
43 46 45 51 58 77 84 77 36 58 56 64 75 85 77 79 82 83 66 55 48 41 36 37 37 39 40 42 42 41 41 39 36 36 32 30 27 24 24 25 28 29 29 31 31 32 32 34 37
41 46 41 63 69 62 77 86 71 78 74 76 93 89 79 84 82 81 78 66 55 49 44 38 36 37 37 39 39 38 38 37 37 35 31 29 28 25 24 24 26 28 30 29 28 29 31 32 34
Wind_Direction
242 168 159 136 54 52 34 24 17 34 38 37 60 45 26 359 14 18 32 46 69 63 69 72 71 66 60 52 42 27 49 57 70 73 75 75 70 68 71 71 68 63 62 62 57 54 55 53 48
250 225 144 106 29 28 16 31 20 32 41 61 46 51 42 18 13 50 43 65 74 70 77 71 71 68 61 43 34 26 39 56 62 66 70 69 62 64 65 68 64 58 56 57 55 50 48 44 39
202 137 73 34 6 17 341 19 36 36 36 67 50 49 29 20 25 18 44 72 76 71 66 62 73 68 60 39 30 31 37 42 50 60 64 62 60 62 61 59 55 44 44 43 43 40 35 35 35
338 39 26 20 357 351 334 354 17 27 70 74 49 23 16 355 14 21 63 58 53 53 55 66 66 62 59 50 40 19 41 28 44 47 50 52 51 49 49 49 42 34 34 32 30 28 36 40 39
2 5 349 312 301 348 348 349 9 36 28 55 58 18 7 6 17 52 55 57 57 52 60 64 60 57 55 34 32 20 20 25 29 31 34 35 37 35 35 32 30 28 25 21 19 21 26 33 38
342 345 332 337 340 342 343 350 352 8 41 39 78 20 8 16 47 64 57 56 50 50 52 57 54 49 40 30 30 22 18 15 16 17 15 13 12 14 17 18 19 15 10 13 12 8 8 360 5
330 322 315 311 312 324 328 342 335 307 333 347 17 347 358 36 64 57 56 54 49 46 50 59 60 49 33 18 14 10 7 0 352 348 347 348 351 356 359 2 358 357 360 5 7 2 352 353 359
320 318 311 311 315 318 332 335 329 317 315 355 351 340 336 94 75 67 59 60 51 42 41 41 54 54 38 20 10 3 355 350 344 342 342 341 344 343 349 348 345 349 348 351 356 355 356 1 1
322 310 308 310 312 317 329 324 328 323 311 319 325 328 335 116 98 77 69 66 53 41 36 33 38 37 32 28 20 12 6 359 352 347 338 340 334 335 336 329 330 327 326 326 328 331 335 336 339
309 304 307 319 319 317 321 324 317 305 284 296 295 316 330 120 165 136 116 85 59 40 31 27 27 21 26 20 23 10 3 351 345 338 338 331 327 326 326 325 324 321 321 321 322 324 327 331 327
308 297 304 314 313 313 313 314 316 300 287 269 266 273 266 220 220 240 255 275 333 24 9 18 12 5 1 352 357 359 353 349 345 340 334 331 325 320 320 320 322 322 316 320 321 321 322 323 324
301 302 302 305 308 310 306 309 308 297 292 309 261 256 241 235 233 244 251 262 269 291 331 348 351 344 340 347 347 349 348 346 345 338 335 332 326 318 314 313 314 315 312 309 309 311 311 314 317
299 300 301 303 302 301 303 299 301 299 295 299 299 276 250 240 239 251 253 265 273 274 302 316 327 332 335 336 341 343 346 344 344 341 334 331 329 322 319 317 317 315 314 310 310 312 312 311 311
300 304 301 300 299 299 297 298 294 290 297 286 287 271 263 249 243 244 247 253 254 275 290 304 314 322 328 330 336 340 341 343 347 345 337 333 328 324 320 319 317 316 315 313 312 312 312 311 312
300 298 298 296 295 292 299 293 286 288 289 282 280 271 261 254 249 245 249 252 252 266 281 292 306 315 322 331 336 339 343 346 349 348 339 335 331 329 324 322 320 317 318 316 317 317 316 314 314
295 295 295 300 297 297 288 292 302 292 281 276 278 268 264 254 249 247 246 251 247 257 266 282 300 308 318 326 330 338 345 347 350 349 338 333 333 331 329 327 324 323 324 323 322 321 318 316 315
291 291 295 298 296 300 290 293 307 308 293 268 277 272 266 261 254 253 246 245 245 249 260 272 287 297 309 317 329 338 345 347 352 347 337 332 333 332 332 330 328 327 329 329 327 325 324 321 320
291 290 291 295 295 297 294 292 293 294 294 286 283 273 263 262 259 255 254 247 248 249 255 265 275 287 297 310 324 334 341 348 350 346 340 333 335 337 338 337 334 333 333 333 330 328 328 327 323
290 291 291 294 300 297 295 294 294 295 291 281 282 279 269 261 267 261 255 252 250 248 251 256 263 270 280 292 303 317 328 340 343 341 343 344 342 343 342 340 337 336 335 334 333 330 328 329 330
292 290 289 293 295 294 295 292 294 294 291 287 285 278 275 270 265 257 249 251 250 254 255 250 254 257 266 280 292 308 324 333 339 339 339 346 347 345 345 343 341 337 338 336 336 333 329 332 335
288 288 289 290 292 289 293 288 296 296 284 281 282 277 280 274 272 262 249 253 256 256 253 254 252 252 259 271 284 299 318 323 326 329 334 343 348 348 348 348 345 343 341 336 336 335 334 330 335
287 291 290 290 290 287 295 289 299 300 300 300 296 287 284 286 279 271 252 254 260 263 261 255 252 251 254 258 269 271 287 299 309 317 325 337 347 348 347 346 346 344 343 340 339 339 336 333 332
285 293 293 290 289 290 290 291 299 323 311 309 313 295 300 299 292 282 270 253 260 267 267 262 258 254 255 256 260 264 276 292 302 310 315 326 337 345 346 345 345 345 344 343 340 339 338 339 336
294 294 293 290 290 283 289 288 294 304 310 318 323 325 318 309 302 295 284 258 264 271 268 267 262 258 253 255 259 259 266 277 281 290 298 308 320 328 335 340 342 342 340 340 340 341 340 340 341
290 288 287 285 279 282 292 289 285 323 316 312 312 318 324 319 313 304 295 274 277 275 270 269 266 263 259 256 257 259 263 267 271 277 289 295 306 316 323 330 333 335 337 340 341 340 342 342 343
285 279 280 285 283 284 299 285 293 314 318 320 323 321 323 325 322 319 310 298 287 282 276 273 271 263 260 259 258 259 260 265 271 273 285 291 299 309 318 325 331 332 334 337 339 341 343 344 344
284 280 286 284 285 285 283 282 284 296 310 311 313 320 323 322 321 316 315 307 297 287 280 278 275 268 264 261 259 259 259 262 269 274 279 287 295 302 312 321 326 330 332 334 336 341 343 345 346
290 305 286 286 282 279 282 285 287 302 306 306 308 310 312 313 316 316 312 308 301 293 284 281 278 272 267 263 260 259 259 262 267 271 274 280 288 295 304 312 320 326 331 335 338 343 345 345 345
290 283 290 294 289 287 285 282 300 310 318 313 312 314 313 312 313 311 312 308 301 295 287 283 278 272 268 263 261 260 260 261 264 268 273 278 282 289 298 309 319 324 332 335 340 342 346 348 350
295 292 289 286 288 289 288 283 295 301 307 309 310 312 312 309 313 313 311 310 301 293 287 281 276 265 262 261 259 258 258 259 262 266 269 274 279 287 296 311 318 321 325 332 336 341 346 353 359